FENGYUN 1C DEB

Satellite information

Favourite Embed

Satellite Type and Status

DEBRISIN ORBIT

Key statistics

Satellite FENGYUN 1C DEB at a glance.

Uptime

9665

Days in orbit

Revolutions

≈ 14.2

Per day

Orbit

SSO

Sun Synchronous Orbit

Inclination

98.6

Latest

Satellite identification and parameters

Extended collection of information and parameters for FENGYUN 1C DEB.

Object identification

Identified? True

Debris? True

Object name: FENGYUN 1C DEB

International designator: 1999-025CTU

Object number (NORAD): 32174

Object ID (CCSDS): 32174

Country: PEOPLES REPUBLIC OF CHINA (PRC)

Current information (Y/N): Y

RCS size: SMALL

Orbital parameters

Period: 101.564 minutes

Inclination: 98.6066 deg

SMA: 7210.833 km

Apoapsis: 941.831 km

Periapsis: 723.564 km

RAAN: 359.1308 deg

Eccentricy: 0.01513465

Argument of periapsis: 34.4965 deg

Mean anomaly: 326.5921 deg

Mean motion: 14.17831527 rev/day

Mean motion (dot): 0.00000908 rev/day2

B* drag term: 0.00041572644 1/REarth

Two-line elements (TLE)

Creation date: Oct. 23, 2025, 2:46 a.m.

Reference frame: TEME

Reference center: EARTH

Epoch: Oct. 22, 2025, 9:48 a.m. UTC

TLE line 0: 0 FENGYUN 1C DEB

TLE line 1: 1 32174U 99025CTU 25295.40900510 .00000908 00000-0 41573-3 0 9994

TLE line 2: 2 32174 98.6066 359.1308 0151347 34.4965 326.5921 14.17831527633789

Live tracking on map

Real-time ground track for satellite FENGYUN 1C DEB.

In-orbit conjunctions

A list of the most updated potential collisions computed for object FENGYUN 1C DEB.

Target Orbit TCA Probability of collision Miss distance Type
CZ-6A DEB SSO 2025-06-13 01:22:57 0.0004760287 42.0 (m) DEBRIS
CZ-6A DEB LEO 2025-03-04 16:29:15 0.000252066 234.0 (m) DEBRIS
SL-8 DEB * LEO 2024-08-04 10:16:47 0.0001229672 397.0 (m) DEBRIS

Associated space launch

Chinese polar orbiting meteorological satellite

FENGYUN 1C DEB was lifted into orbit during the mission ‘Long March 4B | Feng Yun 1C’, on board a Long March 4B space rocket.

The launch took place on May 10, 1999, 1:33 a.m. from Launch Complex 7.

For more information about the launch, click the button.

Launch to space Long March 4B | Feng Yun 1C
Long March 4B | Feng Yun 1C

Agency: N/A

Status: Launch Successful

Launch date: May 10, 1999, 1:33 a.m. UTC

Rocket: Long March 4B

Launch pad: Launch Complex 7

Location: Taiyuan Satellite Launch Center, People's Republic of China

...

Latest news about this satellite

There are no fresh news available about this satellite. Check back as we update our databases every day.


Newsletter sign-up

Weekly statistics, charts and insights to help you stay on top of the space industry.